Regional Weather Roundup
Issued by NWS Charleston, SC

Home | Current Version | Previous Version | Text Only | Print | Product List | Glossary On
Versions: 1 2 3 4 5 6 7 8 9 10 11 12 13 14 15 16 17 18 19 20 21 22 23 24 25 26 27 28 29 30 31 32 33 34 35 36 37 38 39 40 41 42 43 44 45 46 47 48 49 50
273
ASUS42 KCHS 212127
RWRCHS

REGIONAL WEATHER ROUNDUP
NATIONAL WEATHER SERVICE CHARLESTON SC
400 PM EST SAT JAN 21 2017

NOTE: "FAIR" INDICATES FEW OR NO CLOUDS BELOW 12,000 FEET WITH NO
SIGNIFICANT WEATHER AND/OR OBSTRUCTIONS TO VISIBILITY.

NOT ALL STATIONS ARE QUALITY CONTROLLED. USE DATA WITH CAUTION...
ESPECIALLY DEWPOINT OBSERVATIONS.

SCZ027-030-031-034>040-042>050-212200-
...SOUTHEAST SOUTH CAROLINA...

CITY           SKY/WX    TMP DP  RH WIND       PRES   REMARKS
N CHARLESTON   LGT RAIN  67  64  90 S14       29.72F
WATERFRONT PRK   N/A     62  62 100 SE7       29.74F
MOUNT PLEASANT CLOUDY    66  64  94 S10       29.74F FOG
JOHNS ISLAND   FOG       64  64 100 SE6       29.74F VSB<1/4
PINOPOLIS        N/A     66  66 100 CALM      29.65F
MONCKS CORNER  LGT RAIN  66  64  94 SE7       29.71F
SUMMERVILLE    LGT RAIN N/A N/A N/A SE6       29.71F
BEAUFORT MCAS  TSTM      64  61  90 SW14      29.78R VSB 3/4
BEAUFORT ARPT  TSTM      63  63 100 W23G30    29.81R
HILTON HEAD IS CLOUDY    64  64 100 S12G17    29.74S FOG
WALTERBORO     TSTM      63  61  94 S12G25    29.69F VSB 3/4
ALLENDALE      LGT RAIN  66  63  88 VRB7G17   29.69R

...SOUTHERN MIDLANDS AND PEE DEE...

CITY           SKY/WX    TMP DP  RH WIND       PRES   REMARKS
GEORGETOWN     CLOUDY    64  63  94 S6        29.77R
KINGSTREE      CLOUDY    66  63  88 SE8       29.72F
ORANGEBURG     TSTM      67  66  97 NE9G21    29.66F FOG
BARNWELL       DRIZZLE   64  63  94 CALM      29.68R
AIKEN          TSTM      63  61  94 SE14      29.62F
MANNING        CLOUDY    66  63  88 SE6       29.70F
COLUMBIA       LGT RAIN  65  63  93 E6        29.69S FOG
SUMTER         LGT RAIN  64  64 100 SE6       29.68F
FLORENCE       LGT RAIN  66  63  90 SE10      29.73F
MYRTLE BEACH   FOG       63  59  88 S9        29.77F VSB 1/2
N MYRTLE BEACH CLOUDY    62  62 100 SE6       29.75F FOG

$$

GAZ063-065-086>088-099>101-113>116-118-119-134>141-150-212200-
...SOUTHEAST GEORGIA...

CITY           SKY/WX    TMP DP  RH WIND       PRES   REMARKS
SAVANNAH ARPT  TSTM      63  59  87 SW10G18   29.80R VSB 1
HUNTER AAF     TSTM      63  63 100 NW5G46    29.80R VSB 1/4
FORT STEWART   TSTM      61  59  94 CALM      29.76S FOG
STATESBORO     RAIN      62  32  32 S6        29.73R
SYLVANIA       RAIN     N/A N/A N/A SW5       29.72F
CLAXTON        RAIN     N/A N/A N/A S3        29.75R

...CSRA...CENTRAL AND FAR SOUTHEAST GEORGIA...

CITY           SKY/WX    TMP DP  RH WIND       PRES   REMARKS
THOMSON        CLOUDY    66  62  85 W5        29.64F
AUGUSTA-BUSH   LGT RAIN  67  63  87 S7        29.63F
AUGUSTA-DANIEL LGT RAIN  66  61  84 SE13      29.63F
SWAINSBORO       N/A    N/A N/A N/A MISG      29.70
VIDALIA        RAIN      61  61 100 S7        29.73R
EASTMAN        RAIN      62  62 100 SW6       29.71F
HAZLEHURST     RAIN      62  62 100 S3        29.75R
ALMA           TSTM      61  61 100 SE3       29.77F FOG
WAYCROSS       TSTM      64  64 100 N5        29.79S
JESUP          LGT RAIN  63  59  88 NW7       29.80R
BAXLEY         TSTM      63  63 100 S3        29.77S
BRUNSWICK      CLOUDY    73  66  78 S5        29.76R
SAINT SIMONS   CLOUDY    68  64  87 S12       29.75R

$$

SCZ027-028-034-036>038-045-046-048>050-GAZ119-141-212200-
...LAKE AND SUPPLEMENTAL COASTAL OBSERVATIONS...

STATION/POSITION TIME  TEMP    WIND        PRES    WAVE   SWELL
                       AIR SEA DIR/SP/G            HT/PER HT/PER/DIR
                 (UTC) (F)     (DEG/KT/KT) (MB)    (FT/S) (FT/S/D)
WINYAH BAY       2045   59     150/  4     1007.0F
LAKE MURRAY      2050   63     120/  6/  8 1004.7F
ACE BASIN NERRS  2045   63     170/  2     1007.0S
FORT PULASKI     2100   66 58  210/  7/ 10 1007.1
SAPELO ISLAND    2100   70     170/ 12     1007.0

$$

ANZ835-935-AMZ111-154-330-350-352-354-370-450-454-472-212200-
...C-MAN AND BUOY OBSERVATIONS...

STATION/POSITION TIME  TEMP    WIND        PRES    WAVE   SWELL
                       AIR SEA DIR/SP/G            HT/PER HT/PER/DIR
                 (UTC) (F)     (DEG/KT/KT) (MB)    (FT/S) (FT/S/D)
BUOY 41004       2050   69 67  190/  8/ 10 1007.1F   2/11   2/120/11
BUOY 41008       2050   65 62  160/ 16/ 17 1006.7F   3/14   2/120/14
FOLLY BEACH CMAN 2100   62     150/  8/  9 1007.6F
CAPERS NEARSHORE 2008   60 57  170/  8/ 10 1007.3F
FRIPP NEARSHORE  2108   62 59  190/ 12/ 16 1006.7R


STATION/POSITION TIME  TEMP    WIND        PRES    WAVE   SWELL
                       AIR SEA DIR/SP/G            HT/PER HT/PER/DIR
                 (UTC) (F)     (DEG/KT/KT) (MB)    (FT/S) (FT/S/D)
5E ST. MARYS GA  2100      64                N/A     2/11   2/ 90/11
FRYING PAN BUOY  2110   71 71  160/ 10/ 12 1008.0
BUOY 41025       2050   70 74  170/ 10/ 12 1009.5F   4/ 9   3/ 80/ 9
CAPE LOOKOUT NC  2100   65      70/  2/  3 1008.8F
BUOY 41002       2050   69 71  130/ 10/ 12 1011.1F   5/12   5/ 30/12
BUOY 41010       NOT AVBL
ST AUGUSTINE FL  2100   80 65  200/ 14/ 18 1008.2F


$$




USA.gov is the U.S. government's official web portal to all federal, state and local government web resources and services.